Hazlehurst, GA

7:19 AM EDT on October 15, 2019 (GMT -0400)
Hazlehurst

Weather History for KAZE - August, 2019

Change the Weather History Date:

Wednesday, August 21, 2019

  Actual Average Record
Temperature  
Mean Temperature 84 °F -  
Max Temperature 93 °F 89 °F 99 °F (2014)
Min Temperature 75 °F 67 °F 72 °F (2013)
Cooling Degree Days 18    
Growing Degree Days 34 (Base 50)    
Moisture  
Dew Point 72 °F    
Average Humidity 73    
Maximum Humidity 91    
Minimum Humidity 44    
Precipitation  
Precipitation 0.00 in - - ()
Sea Level Pressure  
Sea Level Pressure 30.09 in    
Wind  
Wind Speed 1 mph (SW)    
Max Wind Speed 6 mph    
Max Gust Speed -    
Visibility 10 miles    
Events Rain , Thunderstorm    
Averages and records for this station are not official NWS values.
T = Trace of Precipitation, MM = Missing Value Source: NWS Daily Summary

Daily Weather History Graph

Daily Weather History Graph

Search for Another Location

Airport or City:

Astronomy

Aug. 21, 2019 Rise Set
Actual Time 6:59 AM EDT 8:07 PM EDT
Civil Twilight 6:33 AM EDT 8:33 PM EDT
Nautical Twilight 6:03 AM EDT 9:03 PM EDT
Astronomical Twilight 5:32 AM EDT 9:34 PM EDT
Moon 11:46 PM EDT (8/21) 12:14 PM EDT (8/21)
Length of Visible Light 13h 59m
Length of Day
13h 08m
Waning Gibbous, 69% of the Moon is Illuminated
Aug 21
Waning Gibbous
Aug 23
Last Quarter
Aug 30
New
Sep 5
First Quarter
Sep 14
Full

Hourly Weather History & Observations

Time (EDT) Temp. Heat Index Dew Point Humidity Pressure Visibility Wind Dir Wind Speed Gust Speed Precip Events Conditions
12:10 AM 79.9 °F - 72.0 °F 77% 30.12 in 10.0 mi Calm Calm - N/A   Clear
12:30 AM 79.3 °F - 72.5 °F 79% 30.12 in 10.0 mi South 3.5 mph - N/A   Clear
12:50 AM 79.7 °F - 72.5 °F 79% 30.12 in 10.0 mi South 3.5 mph - N/A   Mostly Cloudy
1:10 AM 79.5 °F - 72.5 °F 79% 30.12 in 10.0 mi South 3.5 mph - N/A   Scattered Clouds
1:30 AM 79.0 °F - 72.5 °F 80% 30.12 in 10.0 mi South 3.5 mph - N/A   Clear
1:50 AM 78.6 °F - 72.3 °F 81% 30.11 in 10.0 mi South 3.5 mph - N/A   Clear
2:10 AM 78.3 °F - 72.5 °F 82% 30.11 in 10.0 mi Calm Calm - N/A   Clear
2:30 AM 77.9 °F - 72.5 °F 83% 30.10 in 10.0 mi Calm Calm - N/A   Clear
2:50 AM 77.9 °F - 72.5 °F 83% 30.10 in 10.0 mi Calm Calm - N/A   Clear
3:10 AM 77.5 °F - 72.5 °F 84% 30.10 in 10.0 mi Calm Calm - N/A   Clear
3:30 AM 77.2 °F - 72.7 °F 86% 30.10 in 10.0 mi Calm Calm - N/A   Clear
3:50 AM 76.6 °F - 72.7 °F 87% 30.10 in 10.0 mi Calm Calm - N/A   Clear
4:10 AM 76.5 °F - 72.7 °F 88% 30.09 in 10.0 mi Calm Calm - N/A   Clear
4:30 AM 76.8 °F - 72.9 °F 88% 30.08 in 10.0 mi Calm Calm - N/A   Clear
4:50 AM 76.6 °F - 72.9 °F 88% 30.08 in 10.0 mi Calm Calm - N/A   Clear
5:10 AM 76.6 °F - 73.0 °F 89% 30.08 in 10.0 mi Calm Calm - N/A   Clear
5:30 AM 76.3 °F - 72.9 °F 89% 30.08 in 10.0 mi Calm Calm - N/A   Clear
5:50 AM 76.3 °F - 73.0 °F 90% 30.08 in 10.0 mi Calm Calm - N/A   Clear
6:10 AM 76.1 °F - 72.9 °F 90% 30.08 in 10.0 mi Calm Calm - N/A   Clear
6:30 AM 75.7 °F - 72.7 °F 90% 30.09 in 10.0 mi Calm Calm - N/A   Clear
6:50 AM 75.9 °F - 72.7 °F 90% 30.09 in 10.0 mi Calm Calm - N/A   Clear
7:10 AM 76.1 °F - 72.9 °F 90% 30.10 in 10.0 mi Calm Calm - N/A   Clear
7:30 AM 76.1 °F - 73.2 °F 91% 30.10 in 10.0 mi Calm Calm - N/A   Clear
7:50 AM 76.5 °F - 73.4 °F 90% 30.10 in 10.0 mi Calm Calm - N/A   Clear
8:10 AM 77.0 °F - 73.6 °F 89% 30.11 in 10.0 mi Calm Calm - N/A   Clear
8:30 AM 77.4 °F - 73.8 °F 89% 30.12 in 10.0 mi Calm Calm - N/A   Clear
8:50 AM 77.9 °F - 73.2 °F 85% 30.12 in 10.0 mi Calm Calm - N/A   Clear
9:30 AM 80.6 °F 85.0 °F 72.9 °F 77% 30.12 in 10.0 mi Calm Calm - N/A   Clear
9:50 AM 81.9 °F 86.8 °F 72.3 °F 73% 30.11 in 10.0 mi Calm Calm - N/A   Clear
10:10 AM 83.8 °F 88.9 °F 71.4 °F 66% 30.12 in 10.0 mi Calm Calm - N/A   Clear
10:30 AM 85.8 °F 91.8 °F 71.8 °F 63% 30.12 in 10.0 mi Calm Calm - N/A   Clear
10:50 AM 86.9 °F 93.3 °F 72.1 °F 61% 30.12 in 10.0 mi Calm Calm - N/A   Clear
11:10 AM 88.7 °F 96.7 °F 73.0 °F 60% 30.12 in 10.0 mi SSW 3.5 mph - N/A   Clear
11:30 AM 88.3 °F 95.4 °F 72.3 °F 59% 30.12 in 10.0 mi SW 3.5 mph - N/A   Clear
11:50 AM 88.0 °F 94.7 °F 71.8 °F 59% 30.12 in 10.0 mi SW 4.6 mph - N/A   Scattered Clouds
12:10 PM 88.9 °F 95.1 °F 71.4 °F 56% 30.12 in 10.0 mi Calm Calm - N/A   Mostly Cloudy
12:30 PM 88.9 °F 95.1 °F 71.4 °F 56% 30.12 in 10.0 mi WSW 3.5 mph - N/A   Mostly Cloudy
12:50 PM 89.8 °F 96.0 °F 71.1 °F 54% 30.12 in 10.0 mi SW 3.5 mph - N/A   Scattered Clouds
1:10 PM 90.7 °F 97.4 °F 71.4 °F 53% 30.12 in 10.0 mi South 5.8 mph - N/A   Clear
1:30 PM 90.7 °F 95.4 °F 69.1 °F 49% 30.11 in 10.0 mi SSW 4.6 mph - N/A   Scattered Clouds
2:10 PM 92.3 °F 96.1 °F 67.8 °F 44% 30.10 in 10.0 mi Calm Calm - N/A Thunderstorm Scattered Clouds
2:30 PM 91.4 °F 95.4 °F 67.8 °F 46% 30.10 in 10.0 mi Calm Calm - N/A   Mostly Cloudy
2:50 PM 89.6 °F 94.3 °F 69.1 °F 51% 30.09 in 10.0 mi NNE 4.6 mph - N/A   Mostly Cloudy
3:10 PM 87.6 °F 91.9 °F 68.9 °F 54% 30.08 in 10.0 mi NNW 4.6 mph - N/A   Overcast
3:30 PM 86.2 °F 91.4 °F 71.1 °F 60% 30.07 in 10.0 mi North 4.6 mph - N/A   Mostly Cloudy
3:50 PM 83.7 °F 90.4 °F 73.6 °F 72% 30.07 in 7.0 mi North 3.5 mph - N/A Rain Rain
4:10 PM 83.3 °F 88.4 °F 72.0 °F 68% 30.06 in 10.0 mi NW 3.5 mph - N/A   Scattered Clouds
4:30 PM 84.2 °F 90.3 °F 72.7 °F 68% 30.06 in 10.0 mi Calm Calm - N/A   Clear
4:50 PM 84.2 °F 89.3 °F 71.4 °F 65% 30.05 in 10.0 mi Calm Calm - N/A   Clear
5:10 PM 84.6 °F 89.1 °F 70.2 °F 62% 30.05 in 10.0 mi Calm Calm - N/A   Clear
5:30 PM 84.4 °F 88.5 °F 69.4 °F 61% 30.06 in 10.0 mi Calm Calm - N/A   Clear
5:50 PM 84.2 °F 88.1 °F 69.6 °F 61% 30.05 in 10.0 mi Calm Calm - N/A   Clear
6:10 PM 84.6 °F 89.4 °F 70.5 °F 63% 30.05 in 10.0 mi Calm Calm - N/A   Clear
6:30 PM 84.7 °F 89.7 °F 70.9 °F 63% 30.05 in 10.0 mi Calm Calm - N/A   Clear
6:50 PM 85.3 °F 90.4 °F 71.1 °F 62% 30.05 in 10.0 mi Calm Calm - N/A   Clear
7:10 PM 84.7 °F 90.4 °F 71.6 °F 65% 30.05 in 10.0 mi Calm Calm - N/A Thunderstorm Clear
7:30 PM 83.5 °F 89.7 °F 73.2 °F 71% 30.05 in 10.0 mi Calm Calm - N/A Thunderstorm Clear
7:50 PM 83.7 °F 89.4 °F 72.5 °F 69% 30.05 in 10.0 mi Calm Calm - N/A   Clear
8:10 PM 83.3 °F 89.9 °F 73.8 °F 73% 30.07 in 10.0 mi Calm Calm - N/A   Clear
8:30 PM 82.6 °F 88.6 °F 73.4 °F 74% 30.07 in 10.0 mi Calm Calm - N/A   Scattered Clouds
8:50 PM 81.7 °F 87.1 °F 73.6 °F 76% 30.07 in 10.0 mi Calm Calm - N/A   Clear
9:10 PM 81.0 °F 86.2 °F 73.9 °F 79% 30.07 in 10.0 mi Calm Calm - N/A   Clear
9:30 PM 81.0 °F 85.8 °F 73.0 °F 77% 30.07 in 10.0 mi Calm Calm - N/A   Clear
9:50 PM 80.8 °F 85.1 °F 72.3 °F 75% 30.07 in 10.0 mi Calm Calm - N/A   Clear
10:30 PM 80.1 °F 83.8 °F 72.0 °F 76% 30.07 in 10.0 mi Calm Calm - N/A   Clear
11:10 PM 79.2 °F - 71.6 °F 78% 30.08 in 10.0 mi Calm Calm - N/A   Clear
11:30 PM 79.2 °F - 72.1 °F 79% 30.08 in 10.0 mi Calm Calm - N/A   Clear
11:50 PM 79.0 °F - 71.6 °F 78% 30.09 in 10.0 mi Calm Calm - N/A   Clear